N1DWM Weather Reports


time (UTC)temp
F
wind
direction
speed
knots
gust
knots
rain 1hr
in
rain 24hr
in
rain mn
in
humidity
%
barometer
mb
20260502191510 56 225 5.2 7.8 0.00 0.00 0.00 66 1010.4
20260502184511 57 232 3.5 7.0 0.00 0.00 0.00 71 1010.9
20260502183014 55 139 2.6 7.0 0.00 0.00 0.00 75 1010.8
20260502181513 54 214 0.0 5.2 0.00 0.00 0.00 78 1011.1
20260502163026 50 207 1.7 4.3 0.00 0.00 0.00 87 1011.8
20260502161524 50 144 0.9 3.5 0.00 0.00 0.00 87 1011.9
20260502151512 51 117 0.0 0.0 0.00 0.00 0.00 83 1012.2
20260502121525 49 299 0.0 2.6 0.00 0.00 0.00 84 1012.5
20260502114514 48 221 0.0 0.0 0.00 0.00 0.00 86 1012.5
20260502113029 47 221 0.0 0.0 0.00 0.00 0.00 85 1012.4
20260502111520 47 221 0.0 0.0 0.00 0.00 0.00 86 1012.4
20260502103019 45 221 0.0 0.0 0.00 0.00 0.00 86 1012.0
20260502101523 45 226 0.0 0.0 0.00 0.00 0.00 86 1012.0
20260502091523 46 226 0.0 0.0 0.00 0.00 0.00 83 1011.8
20260502071515 47 213 0.0 0.0 0.00 0.00 0.00 79 1011.9
20260502070022 47 213 0.0 0.0 0.00 0.00 0.00 79 1011.9
20260502064527 47 213 0.0 3.5 0.00 0.00 0.00 78 1011.9
20260502063028 47 165 0.0 0.0 0.00 0.00 0.00 77 1011.9
20260502061524 47 209 0.0 0.0 0.00 0.00 0.00 77 1011.8
20260502060018 47 227 0.0 0.0 0.00 0.00 0.00 77 1012.1
20260502054524 47 238 0.0 3.5 0.00 0.00 0.00 76 1012.2
20260502053024 48 207 0.9 4.3 0.00 0.00 0.00 75 1012.2
20260502051508 48 222 1.7 6.1 0.00 0.00 0.00 76 1012.4
20260502050013 48 250 0.0 2.6 0.00 0.00 0.00 76 1012.4
20260502044519 48 213 0.0 3.5 0.00 0.00 0.00 76 1012.4
20260502043029 48 217 1.7 4.3 0.00 0.00 0.00 75 1012.5
20260502041525 48 216 0.0 0.0 0.00 0.00 0.00 74 1012.4
20260502040011 48 200 0.0 1.7 0.00 0.00 0.00 74 1012.4
20260502034521 48 200 0.0 0.0 0.00 0.00 0.00 73 1012.5
20260502033023 49 200 0.0 0.0 0.00 0.00 0.00 72 1012.6
20260502030012 49 192 0.0 0.0 0.00 0.00 0.00 70 1012.5
20260502024524 49 192 0.0 0.0 0.00 0.00 0.00 70 1012.5
20260502023020 49 193 0.0 0.0 0.00 0.00 0.00 70 1012.5
20260502021527 49 188 0.0 0.0 0.00 0.00 0.00 69 1012.5
20260502020028 50 205 0.0 0.0 0.00 0.00 0.00 68 1012.5
20260502014513 50 244 0.0 0.0 0.00 0.00 0.00 67 1012.6
20260502013018 50 217 0.0 3.5 0.00 0.00 0.00 66 1012.7
20260502011528 50 218 0.0 1.7 0.00 0.00 0.00 65 1012.5
20260502010027 51 221 0.0 0.0 0.00 0.00 0.00 63 1012.3
20260502004528 52 243 0.0 5.2 0.00 0.00 0.00 60 1012.1
20260502003018 52 252 2.6 7.8 0.00 0.00 0.00 58 1011.9
20260502001522 53 254 1.7 8.7 0.00 0.00 0.00 54 1011.7
20260502000025 54 224 1.7 7.8 0.00 0.00 0.00 49 1011.3
20260501234529 56 238 0.0 9.6 0.00 0.00 0.00 42 1010.9
20260501233026 56 267 0.9 6.1 0.00 0.00 0.00 40 1010.7
20260501230022 57 231 1.7 8.7 0.00 0.00 0.00 40 1010.4
20260501224528 58 256 2.6 8.7 0.00 0.00 0.00 39 1010.2
20260501221528 59 234 0.9 7.8 0.00 0.00 0.00 39 1010.1
20260501220020 60 230 2.6 11.3 0.00 0.00 0.00 38 1010.0
20260501214537 59 242 1.7 9.6 0.00 0.00 0.00 38 1010.1
20260501213028 60 227 6.1 10.4 0.00 0.00 0.00 39 1010.0
20260501211513 60 248 5.2 12.2 0.00 0.00 0.00 39 1009.8
20260501210020 60 205 5.2 14.8 0.00 0.00 0.00 39 1009.7
20260501203006 63 337 0.9 8.7 0.00 0.00 0.00 33 1009.6
20260501201514 62 300 0.0 4.3 0.00 0.00 0.00 34 1009.5
20260501200023 62 279 2.6 9.6 0.00 0.00 0.00 33 1009.8
20260501194534 63 297 2.6 8.7 0.00 0.00 0.00 32 1009.7
20260501193006 63 278 3.5 9.6 0.00 0.00 0.00 33 1009.9